McConnell AFB, KS

9:20 PM CDT on July 18, 2019 (GMT -0500)
McConnell Air Force Base

Weather History for KIAB - May, 2019

Change the Weather History Date:

Saturday, May 25, 2019

  Actual Average Record
Temperature  
Mean Temperature 69 °F -  
Max Temperature 77 °F 77 °F 93 °F (2006)
Min Temperature 61 °F 56 °F 42 °F (2002)
Cooling Degree Days 4    
Growing Degree Days 19 (Base 50)    
Moisture  
Dew Point 66 °F    
Average Humidity 86    
Maximum Humidity 96    
Minimum Humidity 77    
Precipitation  
Precipitation 0.77 in - - ()
Sea Level Pressure  
Sea Level Pressure 29.97 in    
Wind  
Wind Speed 11 mph (SE)    
Max Wind Speed 26 mph    
Max Gust Speed 41 mph    
Visibility 9 miles    
Events Rain , Thunderstorm    
Averages and records for this station are not official NWS values.
T = Trace of Precipitation, MM = Missing Value Source: NWS Daily Summary

Daily Weather History Graph

Daily Weather History Graph

Search for Another Location

Airport or City:

Astronomy

May. 25, 2019 Rise Set
Actual Time 6:12 AM CDT 8:39 PM CDT
Civil Twilight 5:42 AM CDT 9:09 PM CDT
Nautical Twilight 5:05 AM CDT 9:47 PM CDT
Astronomical Twilight 4:24 AM CDT 10:28 PM CDT
Moon 1:42 AM CDT (5/25) 12:11 PM CDT (5/25)
Length of Visible Light 15h 27m
Length of Day
14h 27m
Waning Gibbous, 59% of the Moon is Illuminated
May 25
Waning Gibbous
May 26
Last Quarter
Jun 3
New
Jun 10
First Quarter
Jun 17
Full

Hourly Weather History & Observations

Time (CDT) Temp. Dew Point Humidity Pressure Visibility Wind Dir Wind Speed Gust Speed Precip Events Conditions
12:56 AM 67.5 °F 59.9 °F 77% 29.86 in 10.0 mi SSE 11.5 mph - N/A   Clear
1:56 AM 66.2 °F 59.9 °F 80% 29.86 in 10.0 mi South 6.9 mph - N/A   Clear
2:56 AM 62.6 °F 59.9 °F 91% 29.87 in 10.0 mi SSE 4.6 mph - N/A   Clear
3:56 AM 63.3 °F 59.7 °F 88% 29.90 in 10.0 mi SSE 9.2 mph - N/A   Clear
4:56 AM 61.7 °F 60.4 °F 96% 29.93 in 10.0 mi SSE 8.1 mph - N/A   Clear
5:56 AM 62.8 °F 61.0 °F 94% 29.95 in 10.0 mi SSE 10.4 mph - N/A   Mostly Cloudy
6:56 AM 64.8 °F 62.4 °F 92% 29.97 in 10.0 mi SE 12.7 mph - N/A   Overcast
7:17 AM 64.4 °F 62.6 °F 94% 29.98 in 10.0 mi ESE 9.2 mph - N/A   Overcast
7:27 AM 64.4 °F 62.6 °F 94% 29.98 in 10.0 mi ESE 6.9 mph - N/A   Overcast
7:56 AM 65.7 °F 63.3 °F 92% 29.98 in 10.0 mi ESE 9.2 mph - N/A   Overcast
8:04 AM 66.2 °F 64.4 °F 94% 29.99 in 10.0 mi SE 8.1 mph - N/A   Mostly Cloudy
8:50 AM 66.2 °F 62.6 °F 88% 29.99 in 10.0 mi ESE 9.2 mph - N/A   Overcast
8:56 AM 67.1 °F 63.1 °F 87% 29.99 in 10.0 mi ESE 8.1 mph - N/A   Overcast
9:21 AM 69.8 °F 64.4 °F 83% 29.99 in 10.0 mi SE 13.8 mph - N/A   Overcast
9:56 AM 71.1 °F 64.6 °F 80% 29.99 in 10.0 mi SE 16.1 mph 19.6 mph N/A   Overcast
10:38 AM 73.4 °F 66.2 °F 78% 29.99 in 10.0 mi SSE 19.6 mph 23.0 mph N/A   Mostly Cloudy
10:56 AM 73.2 °F 65.8 °F 78% 29.99 in 10.0 mi SSE 17.3 mph 26.5 mph N/A   Overcast
11:56 AM 73.6 °F 66.9 °F 80% 29.99 in 10.0 mi SSE 15.0 mph - N/A   Overcast
12:56 PM 73.2 °F 67.3 °F 82% 29.99 in 10.0 mi SSE 10.4 mph - N/A   Overcast
2:56 PM 75.2 °F 69.6 °F 83% 29.96 in 10.0 mi SSE 11.5 mph - N/A   Overcast
3:09 PM 75.2 °F 69.8 °F 83% 29.96 in 10.0 mi SSE 8.1 mph - N/A   Overcast
3:33 PM 75.2 °F 69.8 °F 83% 29.95 in 10.0 mi SSE 9.2 mph - N/A   Overcast
3:56 PM 75.9 °F 70.0 °F 82% 29.95 in 10.0 mi SE 11.5 mph - N/A   Overcast
3:57 PM 75.2 °F 69.8 °F 83% 29.95 in 10.0 mi SE 8.1 mph - N/A   Overcast
4:31 PM 77.0 °F 69.8 °F 78% 29.94 in 10.0 mi SE 8.1 mph - N/A   Overcast
4:32 PM 77.0 °F 69.8 °F 78% 29.94 in 10.0 mi SE 6.9 mph - N/A   Overcast
4:53 PM 77.0 °F 69.8 °F 78% 29.93 in 10.0 mi ESE 9.2 mph - N/A   Overcast
4:54 PM 77.0 °F 69.8 °F 78% 29.93 in 10.0 mi SE 9.2 mph - N/A   Overcast
4:56 PM 76.5 °F 69.8 °F 80% 29.93 in 10.0 mi ESE 8.1 mph - N/A   Overcast
4:57 PM 77.0 °F 69.8 °F 78% 29.93 in 10.0 mi ESE 8.1 mph - N/A   Overcast
5:11 PM 77.0 °F 69.8 °F 78% 29.93 in 10.0 mi ESE 6.9 mph - N/A   Overcast
5:18 PM 77.0 °F 71.6 °F 83% 29.92 in 10.0 mi ESE 6.9 mph - N/A   Overcast
5:25 PM 77.0 °F 69.8 °F 78% 29.91 in 10.0 mi ESE 8.1 mph - N/A   Overcast
5:54 PM 77.0 °F 71.6 °F 83% 29.91 in 10.0 mi ESE 6.9 mph - N/A   Mostly Cloudy
5:56 PM 77.2 °F 70.9 °F 81% 29.91 in 10.0 mi ESE 8.1 mph - N/A   Mostly Cloudy
6:56 PM 75.6 °F 70.7 °F 85% 29.93 in 10.0 mi ESE 4.6 mph - N/A   Scattered Clouds
7:33 PM 75.2 °F 71.6 °F 89% 29.92 in 10.0 mi East 6.9 mph - N/A   Light Drizzle
7:42 PM 75.2 °F 71.6 °F 89% 29.91 in 10.0 mi East 9.2 mph - N/A   Scattered Clouds
7:45 PM 75.2 °F 71.6 °F 89% 29.92 in 10.0 mi East 10.4 mph - N/A Thunderstorm Thunderstorm
7:53 PM 75.2 °F 69.8 °F 83% 29.93 in 10.0 mi ESE 10.4 mph - N/A Thunderstorm Unknown
7:56 PM 75.6 °F 70.3 °F 84% 29.93 in 10.0 mi ESE 10.4 mph - 0.00 in Thunderstorm Unknown
8:36 PM 75.2 °F 71.6 °F 89% 29.95 in 10.0 mi SE 10.4 mph - N/A Rain , Thunderstorm Light Thunderstorms and Rain
8:56 PM 73.6 °F 71.1 °F 92% 29.99 in 9.0 mi South 12.7 mph - 0.05 in Rain , Thunderstorm Thunderstorms and Rain
9:05 PM 69.8 °F 66.2 °F 88% 30.01 in 2.2 mi SW 25.3 mph 41.4 mph N/A Rain , Thunderstorm Heavy Thunderstorms and Rain
9:06 PM 69.8 °F 64.4 °F 83% 30.01 in 1.9 mi SW 26.5 mph 41.4 mph N/A Rain , Thunderstorm Heavy Thunderstorms and Rain
9:07 PM 68.0 °F 64.4 °F 88% 30.01 in 1.6 mi SSW 26.5 mph 41.4 mph N/A Rain , Thunderstorm Heavy Thunderstorms and Rain
9:08 PM 68.0 °F 64.4 °F 88% 30.01 in 1.4 mi SSW 24.2 mph 41.4 mph N/A Rain , Thunderstorm Heavy Thunderstorms and Rain
9:11 PM 66.2 °F 64.4 °F 94% 30.06 in 1.6 mi South 25.3 mph 41.4 mph N/A Rain , Thunderstorm Heavy Thunderstorms and Rain
9:16 PM 66.2 °F 64.4 °F 94% 30.06 in 1.5 mi South 19.6 mph 35.7 mph N/A Rain , Thunderstorm Heavy Thunderstorms and Rain
9:24 PM 66.2 °F 64.4 °F 94% 30.04 in 2.2 mi SE 11.5 mph - N/A Rain , Thunderstorm Heavy Thunderstorms and Rain
9:26 PM 66.2 °F 64.4 °F 94% 30.06 in 3.0 mi SSE 10.4 mph - N/A Rain , Thunderstorm Heavy Thunderstorms and Rain
9:50 PM 66.2 °F 64.4 °F 94% 30.04 in 7.0 mi SE 17.3 mph - N/A Rain , Thunderstorm Light Rain
9:51 PM 66.2 °F 64.4 °F 94% 30.04 in 7.0 mi SE 17.3 mph - N/A Rain , Thunderstorm Light Rain
9:53 PM 66.2 °F 64.4 °F 94% 30.04 in 8.0 mi SE 17.3 mph - N/A Thunderstorm Overcast
9:55 PM 66.2 °F 64.4 °F 94% 30.04 in 10.0 mi SE 16.1 mph - N/A Thunderstorm Thunderstorm
9:56 PM 65.7 °F 63.5 °F 93% 30.04 in 10.0 mi SE 15.0 mph - 0.60 in Thunderstorm Thunderstorm
9:57 PM 66.2 °F 62.6 °F 88% 30.04 in 10.0 mi ESE 15.0 mph - N/A Rain , Thunderstorm Light Thunderstorms and Rain
10:10 PM 66.2 °F 62.6 °F 88% 30.03 in 10.0 mi East 15.0 mph - N/A Rain Light Rain
10:16 PM 66.2 °F 62.6 °F 88% 30.00 in 8.0 mi East 13.8 mph - N/A Rain , Thunderstorm Thunderstorms and Rain
10:31 PM 66.2 °F 62.6 °F 88% 29.97 in 10.0 mi East 15.0 mph - N/A Rain , Thunderstorm Light Rain
10:56 PM 66.2 °F 60.8 °F 83% 29.96 in 10.0 mi East 13.8 mph - 0.12 in Rain Light Rain
10:57 PM 66.2 °F 60.8 °F 83% 29.96 in 10.0 mi East 16.1 mph - N/A   Mostly Cloudy
11:56 PM 65.7 °F 60.6 °F 84% 29.98 in 10.0 mi East 12.7 mph - 0.00 in   Mostly Cloudy